Location: Unspecified
(0.0000°N, 0.0000°E)
Time: 08:14:50
(UTC+00:00)

STARLINK-2756 - Pass Details

Date: 12 June 2021
Orbit: 348 x 351 km, 53.0° (Epoch: 21 June)

Event Time Altitude Azimuth Distance (km) Brightness Sun altitude
Exits shadow 04:35:14 - 154° (SSE) 1,400 5.7 -19.4°
Reaches altitude 10° 04:35:50 10° 143° (SE) 1,301 5.7 -19.2°
Maximum altitude 04:36:44 11° 125° (SE) 1,242 5.8 -19.0°
Drops below altitude 10° 04:37:38 10° 107° (ESE) 1,300 6.2 -18.8°
Sets 04:40:48 0° 68° (ENE) 2,137 8.4 -18.1°
